Flag for India Weather past 2 weeks in Ahmedabad, Gujarat, India

Now
113 °F

Clear.


Feels Like: 114 °F
Forecast: 84 / 111 °F
Wind: 7 mph from Northwest

Location: Ahmadabad Airport

Current Time: May 30, 2015 at 5:16:48 PM

Latest Report: May 30, 2015 at 4:40 PM


Visibility: 4 mi

Pressure: 29.59 "Hg

Humidity: 17%

Dew point: 59 °F

Location of AhmedabadLocation

Historic Weather in Ahmedabad — Graph

°F

Ahmedabad temperature yesterday

Maximum temperature yesterday: 113 °F (at 4:40 PM)
Minimum temperature yesterday: 86 °F (at 5:40 AM)
Average temperature yesterday: 99 °F

Past Weeks' High & Low Weather Summary

 TemperatureHumidityPressure
High117 °F (May 16, 3:40 PM)100% (May 26, 1:10 PM)29.77 "Hg (May 26, 1:10 PM)
Low50 °F (May 26, 1:10 PM)10% (May 17, 5:10 PM)29.50 "Hg (May 17, 4:10 PM)
Average98 °F44%29.66 "Hg
* Reported May 15 3:40 PM — May 30 3:40 PM, Ahmedabad, Weather by CustomWeather, © 2015

Note: Actual official high and low records may vary slightly from our data, if they occured in-between our weather recording intervals... More about our weather records

Advertising

Ahmedabad weather history for previous 24 hours

 ConditionsComfort  
Time TempWeatherWind HumidityBarometerVisibility
3:40 PM
Sat, May 30
113 °FClear.7 mph17%29.62 "Hg4 mi
3:10 PM113 °FThunderstorms. Cloudy.6 mph16%29.62 "HgN/A
2:40 PM113 °FClear.7 mph17%29.65 "Hg4 mi
2:10 PM111 °FClear.7 mph21%29.65 "Hg4 mi
1:40 PM111 °FClear.3 mph20%29.68 "Hg4 mi
1:10 PM109 °FClear.7 mph23%29.68 "Hg4 mi
12:40 PM108 °FClear.7 mph25%29.71 "Hg4 mi
12:10 PM106 °FClear.6 mph30%29.74 "Hg3 mi
11:40 AM104 °FClear.6 mph31%29.74 "Hg3 mi
11:10 AM102 °FClear.5 mph35%29.74 "Hg3 mi
10:40 AM100 °FClear.5 mph40%29.74 "Hg3 mi
10:10 AM97 °FClear.5 mph44%29.77 "Hg3 mi
9:10 AM93 °FClear.5 mph56%29.77 "Hg3 mi
8:10 AM90 °FClear.6 mph59%29.77 "Hg2 mi
6:40 AM86 °FHaze.6 mph62%29.74 "Hg2 mi
6:10 AM86 °FClear.5 mph62%29.74 "Hg2 mi
5:10 AM88 °FClear.8 mph55%29.71 "Hg2 mi
4:40 AM90 °FClear.6 mph52%29.71 "Hg2 mi
3:40 AM91 °FClear.5 mph49%29.68 "Hg2 mi
12:10 AM95 °FClear.2 mph39%29.68 "Hg2 mi
11:40 PM
Fri, May 29
95 °FClear.3 mph34%29.68 "Hg2 mi
11:10 PM97 °FClear.3 mph28%29.68 "Hg2 mi
9:40 PM99 °FClear.2 mph27%29.65 "Hg2 mi
9:10 PM99 °FClear.3 mph29%29.62 "Hg2 mi
8:40 PM100 °FClear.No wind29%29.62 "Hg2 mi
8:10 PM102 °FClear.No wind27%29.62 "Hg2 mi
6:40 PM109 °FClear.3 mph21%29.59 "Hg4 mi
6:10 PM109 °FClear.5 mph23%29.59 "Hg4 mi
5:40 PM111 °FClear.6 mph21%29.59 "Hg4 mi
5:10 PM111 °FClear.6 mph21%29.59 "Hg4 mi
Weather by CustomWeather, © 2015

See weather overviewHow to use our weather pages